Home   Weather   Sidon   Past weeks

Flag for Lebanon Past Weather in Sidon, Lebanon — Yesterday and Last 2 Weeks

Now
75 °F

Passing clouds.


Feels Like: 78 °F
Forecast: 77 / 86 °F
Wind: 3 mph from Southeast

Location: Beirut Airport

Current Time: Sep 27, 2016 at 6:50:21 AM

Latest Report: Sep 27, 2016 at 6:00 AM


Visibility: N/A

Pressure: 29.98 "Hg

Humidity: 50%

Dew Point: 55 °F

Location of SidonLocation

Past Weather in Sidon — Graph

°F

Sidon Temperature Yesterday

Maximum temperature yesterday: 82 °F (at 12:00 PM)
Minimum temperature yesterday: 75 °F (at 4:00 AM)
Average temperature yesterday: 78 °F

High & Low Weather Summary for the Past Weeks

 TemperatureHumidityPressure
High86 °F (Sep 12, 11:00 AM)83% (Sep 24, 3:00 AM)29.98 "Hg (Sep 24, 3:00 AM)
Low73 °F (Sep 24, 3:00 AM)31% (Sep 18, 9:00 AM)29.80 "Hg (Sep 25, 5:00 PM)
Average81 °F59%29.91 "Hg
* Reported Sep 12 5:00 AM — Sep 27 5:00 AM, Sidon, Weather by CustomWeather, © 2016

Note: Actual official high and low records may vary slightly from our data, if they occured in-between our weather recording intervals... More about our weather records

Advertising

Sidon Weather History for the Previous 24 Hours

Scroll right to see more
 ConditionsComfort  
Time TempWeatherWind HumidityBarometerVisibility
5:00 AM
Tue, Sep 27
75 °FPassing clouds.3 mph50%29.95 "HgN/A
4:00 AM77 °FPassing clouds.5 mph47%29.95 "HgN/A
3:00 AM75 °FPassing clouds.3 mph50%29.95 "HgN/A
2:00 AM77 °FPassing clouds.6 mph47%29.98 "HgN/A
1:00 AM77 °FPassing clouds.6 mph51%29.98 "HgN/A
12:00 AM77 °FPassing clouds.6 mph51%29.98 "HgN/A
11:00 PM
Mon, Sep 26
77 °FPassing clouds.1 mph51%29.98 "HgN/A
10:00 PM77 °FPassing clouds.2 mph51%29.98 "HgN/A
9:00 PM77 °FPassing clouds.3 mph51%29.95 "HgN/A
8:00 PM77 °FPassing clouds.5 mph51%29.95 "HgN/A
7:00 PM77 °FPassing clouds.6 mph51%29.92 "HgN/A
6:00 PM79 °FScattered clouds.8 mph45%29.92 "HgN/A
5:00 PM81 °FScattered clouds.10 mph45%29.92 "HgN/A
4:00 PM81 °FScattered clouds.10 mph45%29.92 "HgN/A
3:00 PM81 °FScattered clouds.10 mph48%29.92 "HgN/A
2:00 PM82 °FScattered clouds.10 mph45%29.92 "HgN/A
1:00 PM82 °FScattered clouds.12 mph45%29.92 "HgN/A
12:00 PM82 °FPassing clouds.12 mph42%29.92 "HgN/A
11:00 AM81 °FPassing clouds.10 mph48%29.92 "HgN/A
10:00 AM79 °FPassing clouds.9 mph51%29.92 "HgN/A
9:00 AM79 °FPassing clouds.6 mph48%29.92 "HgN/A
8:00 AM77 °FSunny.5 mph51%29.89 "HgN/A
7:00 AM75 °FSunny.5 mph54%29.89 "HgN/A
6:00 AM75 °FClear.5 mph54%29.89 "HgN/A
Weather by CustomWeather, © 2016

See weather overviewHow to use our weather pages